Location: Kuffner-Sternwarte
(48.2130°N, 16.2960°E)
Time: 01:10:05
(UTC+01:00)

ISS - Pass Details

Date: 24 February 2019
Orbit: 406 x 411 km, 51.6° (Epoch: 22 March)

Event Time Altitude Azimuth Distance (km) Brightness Sun altitude
Exits shadow 05:36:59 - 205° (SSW) 2,321 -0.2 -12.3°
Rises 05:37:00 0° 205° (SSW) 2,313 -0.2 -12.3°
Reaches altitude 10° 05:39:26 10° 187° (S) 1,458 -1.1 -11.9°
Maximum altitude 05:41:51 19° 139° (SE) 1,027 -1.2 -11.5°
Drops below altitude 10° 05:44:18 10° 91° (E) 1,467 0.6 -11.1°
Sets 05:46:45 0° 73° (ENE) 2,333 1.6 -10.7°
